Chatsworth, GA

5:20 PM EST on February 07, 2016 (GMT -0500)
Dalton Municipal

Weather History for KDNN - September, 2013

Change the Weather History Date:

Saturday, September 21, 2013

  Actual Average Record
Temperature  
Mean Temperature 66 °F -  
Max Temperature 71 °F 83 °F 95 °F (1980)
Min Temperature 60 °F 59 °F 44 °F (1956)
Growing Degree Days 16 (Base 50)    
Moisture  
Dew Point 65 °F    
Average Humidity 95    
Maximum Humidity 100    
Minimum Humidity 83    
Precipitation  
Precipitation 0.04 in - - ()
Sea Level Pressure  
Sea Level Pressure 29.82 in    
Wind  
Wind Speed 4 mph (NNW)    
Max Wind Speed 18 mph    
Max Gust Speed 21 mph    
Visibility 8 miles    
Events Rain    
Averages and records for this station are not official NWS values.
T = Trace of Precipitation, MM = Missing Value Source: NWS Daily Summary

Daily Weather History Graph

Daily Weather History Graph

Search for Another Location

Airport or City:

Trip Planner

Search our weather history database for the weather conditions in past years. The results will help you decide how hot, cold, wet, or windy it might be!

Date:

Astronomy

Sep. 21, 2013 Rise Set
Actual Time 7:26 AM EDT 7:37 PM EDT
Civil Twilight 7:01 AM EDT 8:02 PM EDT
Nautical Twilight 6:32 AM EDT 8:31 PM EDT
Astronomical Twilight 6:02 AM EDT 9:01 PM EDT
Moon 8:55 PM EDT (9/21) 9:37 AM EDT (9/21)
Length of Visible Light 13h 00m
Length of Day
12h 10m
Waning Gibbous, 94% of the Moon is Illuminated
Sep 21
Waning Gibbous
Sep 26
Last Quarter
Oct 4
New
Oct 11
First Quarter
Oct 18
Full

Hourly Weather History & Observations

Time (EDT) Temp. Dew Point Humidity Pressure Visibility Wind Dir Wind Speed Gust Speed Precip Events Conditions
12:15 AM 71.6 °F 66.2 °F 83% 29.93 in 10.0 mi Calm Calm - N/A   Clear
12:35 AM 71.6 °F 66.2 °F 83% 29.92 in 10.0 mi Calm Calm - N/A   Clear
12:55 AM 71.6 °F 66.2 °F 83% 29.92 in 10.0 mi South 3.5 mph - N/A   Clear
1:15 AM 71.6 °F 66.2 °F 83% 29.92 in 10.0 mi Calm Calm - N/A   Clear
1:35 AM 71.6 °F 66.2 °F 83% 29.91 in 10.0 mi Calm Calm - N/A   Scattered Clouds
1:55 AM 71.6 °F 66.2 °F 83% 29.90 in 10.0 mi Calm Calm - N/A   Scattered Clouds
2:15 AM 71.6 °F 66.2 °F 83% 29.88 in 10.0 mi Calm Calm - N/A   Clear
2:35 AM 69.8 °F 66.2 °F 88% 29.88 in 10.0 mi Calm Calm - N/A   Clear
2:55 AM 69.8 °F 66.2 °F 88% 29.87 in 10.0 mi Calm Calm - N/A   Clear
3:15 AM 69.8 °F 66.2 °F 88% 29.87 in 10.0 mi SSE 3.5 mph - N/A   Scattered Clouds
3:35 AM 69.8 °F 66.2 °F 88% 29.86 in 10.0 mi Calm Calm - N/A   Scattered Clouds
3:55 AM 69.8 °F 66.2 °F 88% 29.85 in 10.0 mi SSE 3.5 mph - N/A   Scattered Clouds
4:15 AM 69.8 °F 66.2 °F 88% 29.84 in 10.0 mi Calm Calm - N/A   Scattered Clouds
4:35 AM 69.8 °F 66.2 °F 88% 29.83 in 10.0 mi SSE 3.5 mph - N/A   Mostly Cloudy
4:55 AM 69.8 °F 68.0 °F 94% 29.83 in 10.0 mi SSE 3.5 mph - N/A   Drizzle
5:15 AM 69.8 °F 68.0 °F 94% 29.83 in 10.0 mi Calm Calm - N/A Rain Rain
5:35 AM 68.0 °F 68.0 °F 100% 29.82 in 7.0 mi SSE 3.5 mph - N/A Rain Light Rain
5:55 AM 68.0 °F 68.0 °F 100% 29.82 in 7.0 mi SSE 5.8 mph - N/A Rain Light Rain
6:15 AM 68.0 °F 68.0 °F 100% 29.82 in 7.0 mi SSE 8.1 mph - N/A Rain Light Rain
6:35 AM 68.0 °F 68.0 °F 100% 29.82 in 7.0 mi SSE 5.8 mph - N/A Rain Light Rain
6:55 AM 68.0 °F 68.0 °F 100% 29.82 in 7.0 mi SSE 5.8 mph - N/A Rain Light Rain
7:15 AM 68.0 °F 68.0 °F 100% 29.81 in 7.0 mi South 4.6 mph - N/A Rain Light Rain
7:35 AM 68.0 °F 68.0 °F 100% 29.81 in 7.0 mi SSE 4.6 mph - N/A Rain Rain
7:55 AM 68.0 °F 68.0 °F 100% 29.81 in 7.0 mi SSE 6.9 mph - N/A Rain Light Rain
8:15 AM 68.0 °F 68.0 °F 100% 29.82 in 7.0 mi SSE 9.2 mph - N/A Rain Light Rain
8:35 AM 68.0 °F 68.0 °F 100% 29.82 in 5.0 mi SSE 6.9 mph - N/A Rain Light Rain
8:55 AM 68.0 °F 68.0 °F 100% 29.81 in 5.0 mi SSE 6.9 mph - N/A Rain Light Rain
9:15 AM 69.8 °F 69.8 °F 100% 29.80 in 7.0 mi SSE 10.4 mph - N/A Rain Rain
9:35 AM 69.8 °F 69.8 °F 100% 29.80 in 7.0 mi SSE 10.4 mph - N/A Rain Rain
9:55 AM 69.8 °F 69.8 °F 100% 29.80 in 7.0 mi SSE 8.1 mph - N/A Rain Rain
10:15 AM 68.0 °F 68.0 °F 100% 29.80 in 5.0 mi SE 9.2 mph - N/A Rain Light Rain
10:35 AM 68.0 °F 68.0 °F 100% 29.78 in 5.0 mi SE 9.2 mph - N/A Rain Rain
10:55 AM 69.8 °F 69.8 °F 100% 29.78 in 7.0 mi SSE 8.1 mph - N/A Rain Rain
11:15 AM 68.0 °F 68.0 °F 100% 29.81 in 1.0 mi NW 6.9 mph 17.3 mph 0.01 in Rain Heavy Rain
11:35 AM 66.2 °F 66.2 °F 100% 29.81 in 2.5 mi NNW 18.4 mph - 0.02 in Rain Heavy Rain
11:55 AM 62.6 °F 62.6 °F 100% 29.82 in 2.5 mi NNW 12.7 mph 20.7 mph 0.02 in Rain Heavy Rain
12:15 PM 62.6 °F 62.6 °F 100% 29.80 in 7.0 mi NNW 10.4 mph - N/A Rain Rain
12:35 PM 62.6 °F 62.6 °F 100% 29.80 in 7.0 mi North 12.7 mph 18.4 mph 0.01 in Rain Rain
12:55 PM 62.6 °F 62.6 °F 100% 29.81 in 7.0 mi North 9.2 mph - 0.01 in Rain Rain
1:15 PM 62.6 °F 62.6 °F 100% 29.80 in 7.0 mi North 6.9 mph 16.1 mph N/A Rain Rain
1:35 PM 62.6 °F 62.6 °F 100% 29.80 in 4.0 mi North 8.1 mph - N/A Rain Heavy Rain
1:55 PM 62.6 °F 62.6 °F 100% 29.81 in 4.0 mi NNW 10.4 mph - 0.01 in Rain Rain
2:15 PM 62.6 °F 62.6 °F 100% 29.79 in 7.0 mi NNW 5.8 mph 9.2 mph N/A Rain Light Rain
2:35 PM 64.4 °F 64.4 °F 100% 29.79 in 7.0 mi NW 10.4 mph - N/A Rain Rain
2:55 PM 64.4 °F 64.4 °F 100% 29.78 in 10.0 mi North 4.6 mph - N/A   Light Drizzle
3:15 PM 64.4 °F 64.4 °F 100% 29.79 in 10.0 mi NNW 9.2 mph - N/A   Scattered Clouds
3:35 PM 64.4 °F 64.4 °F 100% 29.79 in 10.0 mi NW 9.2 mph - N/A   Scattered Clouds
3:55 PM 64.4 °F 64.4 °F 100% 29.79 in 10.0 mi NW 10.4 mph - N/A   Clear
4:15 PM 64.4 °F 64.4 °F 100% 29.78 in 10.0 mi NNW 6.9 mph - N/A   Scattered Clouds
4:35 PM 66.2 °F 64.4 °F 94% 29.77 in 10.0 mi NNW 8.1 mph - N/A   Scattered Clouds
4:55 PM 68.0 °F 64.4 °F 88% 29.77 in 10.0 mi NNW 8.1 mph - N/A   Scattered Clouds
5:15 PM 68.0 °F 64.4 °F 88% 29.77 in 10.0 mi NNW 6.9 mph - N/A   Scattered Clouds
5:35 PM 68.0 °F 64.4 °F 88% 29.77 in 10.0 mi North 3.5 mph - N/A   Scattered Clouds
5:55 PM 68.0 °F 64.4 °F 88% 29.77 in 10.0 mi North 5.8 mph - N/A   Scattered Clouds
6:15 PM 68.0 °F 64.4 °F 88% 29.78 in 10.0 mi North 3.5 mph - N/A   Scattered Clouds
6:35 PM 68.0 °F 64.4 °F 88% 29.78 in 10.0 mi North 3.5 mph - N/A   Scattered Clouds
6:55 PM 66.2 °F 64.4 °F 94% 29.78 in 10.0 mi Calm Calm - N/A   Mostly Cloudy
7:15 PM 66.2 °F 64.4 °F 94% 29.78 in 10.0 mi Calm Calm - N/A   Overcast
7:35 PM 66.2 °F 64.4 °F 94% 29.78 in 10.0 mi NNW 4.6 mph - N/A   Overcast
7:55 PM 66.2 °F 64.4 °F 94% 29.79 in 10.0 mi Calm Calm - N/A   Overcast
8:15 PM 66.2 °F 66.2 °F 100% 29.79 in 10.0 mi Calm Calm - N/A   Overcast
8:35 PM 64.4 °F 64.4 °F 100% 29.80 in 10.0 mi NW 3.5 mph - N/A   Mostly Cloudy
8:55 PM 64.4 °F 64.4 °F 100% 29.80 in 10.0 mi NNW 11.5 mph - N/A   Mostly Cloudy
9:15 PM 64.4 °F 62.6 °F 94% 29.81 in 10.0 mi NNW 11.5 mph 18.4 mph N/A   Scattered Clouds
9:35 PM 64.4 °F 62.6 °F 94% 29.82 in 10.0 mi NNW 8.1 mph - N/A   Scattered Clouds
9:55 PM 64.4 °F 62.6 °F 94% 29.82 in 10.0 mi NNW 8.1 mph - N/A   Mostly Cloudy
10:15 PM 62.6 °F 62.6 °F 100% 29.82 in 10.0 mi NNW 6.9 mph - N/A   Scattered Clouds
10:35 PM 62.6 °F 60.8 °F 94% 29.83 in 10.0 mi NNW 5.8 mph - N/A   Clear
10:55 PM 60.8 °F 60.8 °F 100% 29.83 in 10.0 mi NNW 5.8 mph - N/A   Clear
11:15 PM 60.8 °F 60.8 °F 100% 29.83 in 10.0 mi NNW 5.8 mph - N/A   Clear
11:35 PM 60.8 °F 60.8 °F 100% 29.83 in 10.0 mi NNW 6.9 mph - N/A   Clear
11:55 PM 60.8 °F 60.8 °F 100% 29.82 in 10.0 mi NNW 6.9 mph - N/A   Clear